Location: T�bingen+AIT
(48.5342°N, 9.0700°E)
Time: 20:29:05
(UTC+02:00)

Cosmos 482 Debris - Pass Details

Date: 14 September 2017
Orbit: 203 x 2576 km, 52.1° (Epoch: 19 September)

Event Time Altitude Azimuth Distance (km) Brightness Sun altitude
Rises 20:13:24 0° 287° (WNW) 3,562 11.0 -6.6°
Reaches altitude 10° 20:16:42 10° 291° (WNW) 2,201 9.1 -7.1°
Maximum altitude 20:21:23 62° 12° (NNE) 530 4.3 -7.9°
Enters shadow 20:24:00 12° 94° (E) 1,240 5.5 -8.3°
